Other Public Products
Issued by NWS Grand Forks, ND

Home | Current Version | Previous Version | Graphics & Text | Print | Product List | Glossary On
Versions: 1 2 3 4 5 6 7 8 9 10 11 12 13 14 15 16 17 18 19 20 21 22 23 24 25 26 27 28 29 30 31 32 33 34 35 36 37 38 39 40 41 42 43 44 45 46 47 48 49 50
000
FPUS83 KFGF 130831
OPUFGF
PRAIRIE TO PINES WEATHER ROUNDUP
NATIONAL WEATHER SERVICE EASTERN NORTH DAKOTA/GRAND FORKS ND
200 AM CST SAT FEB 13 2016

 **SATELLITE DATA USED TO AUGMENT SKY COVER AT AUTOMATED STATIONS**
 *****  WEATHER ACROSS EASTERN NORTH DAKOTA  *****

CITY           SKY/WX    TMP DP  RH WIND       PRES   REMARKS
GRAND FORKS    CLOUDY    -8 -14  74 CALM      30.65F
GRAND FORKS AF CLOUDY   -10 -16  73 SW2       30.63F
GRAND CITY NWS NOT AVBL
BUXTON           N/A     -9 -12  86 CALM        N/A
DEVILS LAKE    CLOUDY   -14 -19  79 SE5       30.53F WCI -26
FARGO          CLOUDY    -8 -14  74 CALM      30.65F
WAHPETON ARPT  MOSUNNY   -8 -13  77 CALM      30.65F
$$

 *****  WEATHER ACROSS CENTRAL AND WESTERN NORTH DAKOTA  *****

CITY           SKY/WX    TMP DP  RH WIND       PRES   REMARKS
JAMESTOWN      CLOUDY    -6 -13  71 SE6       30.54F WCI -19
BISMARCK       CLOUDY     8  -3  61 SE13      30.45F WCI  -8
MINOT          CLOUDY     7  -4  60 SE12      30.40F WCI  -8
MINOT AFB      CLOUDY     5  -2  73 SE14      30.39F WCI -12
GARRISON         N/A      5  -3  69 SE14      30.38F WCI -12
WILLISTON      LGT SNOW  13   7  77 SE14      30.23F WCI  -2
DICKINSON      LGT SNOW  11   6  81 SE21G29   30.19F WCI  -8
HETTINGER      LGT SNOW  14  10  84 SE16G23   30.24F FOG     WCI  -2
$$

 *****  OTHER OBSERVATIONS NORTHEAST NORTH DAKOTA  *****

CITY           SKY/WX    TMP DP  RH WIND       PRES   REMARKS
WALHALLA       FAIR     -13 -18  77 SW5       30.60F WCI -25
LANGDON        FAIR     -24 -29  76 S5        30.51F WCI -38
CAVALIER       FAIR      -9 -15  77 S3        30.62F
GRAFTON        FAIR     -11 -15  84 S7        30.65F WCI -26
CANDO          FAIR     -13 -17  84 SE6       30.53F WCI -27
FORT TOTTEN      N/A     -8 -14  74 S6        29.95S WCI -21
ROLLA          FAIR      -8 -13  77 S7        30.45F WCI -22
RUGBY          FAIR       0 -11  60 SE10G17   30.47F WCI -17
 ***** THE ABOVE OBSERVATIONS ARE NON NWS ARE NOT QUALITY
        CONTROLLED AND MAY MIS-REPORT RAIN FOR SNOW...
$$

 *****  OTHER OBSERVATIONS SOUTHEAST NORTH DAKOTA *****

CITY           SKY/WX    TMP DP  RH WIND       PRES   REMARKS
COOPERSTOWN    NOT AVBL
VALLEY CITY      N/A    -13 -17  84 S3        30.58F
OAKES          FAIR      -2 -11  65 SE7       30.58S WCI -16
GWINNER        FAIR      -6 -11  77 CALM      30.60F
SHEYENNE NWR     N/A    -16 -23  69 CALM      29.95S
BUFFALO          N/A    -15 -21  74 SW3         N/A
WYNDMERE         N/A     -9 -15  77 SW1         N/A
 ***** THE ABOVE OBSERVATIONS ARE NON NWS ARE NOT QUALITY
       CONTROLLED AND MAY MIS-REPORT RAIN FOR SNOW...
$$

  *****  WEATHER ACROSS NORTHERN MINNESOTA  *****

CITY           SKY/WX    TMP DP  RH WIND       PRES   REMARKS
FLAG ISLAND    CLOUDY   -18 -24  76 CALM      30.57S
WARROAD        CLOUDY   -18 -26  69 W3        30.59S
ROSEAU         CLOUDY   -20 -27  69 CALM      30.61R
HALLOCK        CLOUDY   -15 -20  76 CALM      30.63F
THF RVR FALLS  CLOUDY   -15 N/A N/A CALM      30.61S
HALSTAD          N/A     -7 -11  81 CALM        N/A
FOSSTON          N/A    -24 -31  69 CALM      30.60F
BAUDETTE       CLOUDY   -17 -23  73 NW5       30.56F WCI -30
WASKISH        CLOUDY   -17 -22  76 SW6       30.59R WCI -31
CROOKSTON      CLOUDY    -9 -15  77 CALM      30.65F
$$
  *****  WEATHER ACROSS CENTRAL AND WEST MINNESOTA  *****

CITY           SKY/WX    TMP DP  RH WIND       PRES   REMARKS
BEMIDJI        CLOUDY   -19 -24  77 CALM      30.58S
PARK RAPIDS    CLOUDY   -18 -24  74 CALM      30.57S
WADENA         CLOUDY   -15 -18  84 CALM      30.59S
DETROIT LAKES  CLOUDY    -9 -15  77 CALM      30.60S
MOORHEAD       CLOUDY    -8 -15  71 CALM      30.65F
FERGUS FALLS   CLOUDY    -9 -15  77 CALM      30.66F
ELBOW LAKE     FAIR      -7 -12  81 CALM      30.62F
MORRIS MN      CLOUDY    -8 -13  77 CALM      30.62F
STAPLES        CLOUDY   -15 -18  84 CALM      30.60R
WHEATON        CLOUDY    -8 -11  84 CALM      30.66F
$$
  *****  WEATHER ELSEWHERE ACROSS MINNESOTA  *****

CITY           SKY/WX    TMP DP  RH WIND       PRES   REMARKS
DULUTH         CLOUDY   -12 -21  64 NW9       30.53R WCI -30
INTRNTL FALLS  CLOUDY   -18 -23  77 NW5       30.55S WCI -31
ELY            CLOUDY   -17 -22  76 W7        30.50R WCI -33
CLOQUET        CLOUDY   -11 -20  64 NW8       30.55S WCI -28
BRAINERD       PTCLDY   -12 -19  71 NW3       30.60S
HIBBING        CLOUDY   -16 -22  74 NW7       30.53R WCI -32
ALEXANDRIA     CLOUDY    -9 -15  75 NW5       30.59S WCI -20
SAINT CLOUD    CLOUDY    -9 -16  71 NW6       30.63R WCI -22
MINNEAPOLIS    CLOUDY    -3 -12  65 NW9       30.64R WCI -19
$$

  *****  WEATHER ACROSS SOUTH DAKOTA  *****

CITY           SKY/WX    TMP DP  RH WIND       PRES   REMARKS
SIOUX FALLS    CLOUDY    -2  -8  76 NE7       30.60F WCI -15
BROOKINGS      CLOUDY    -7 -12  79 CALM      30.57F
WATERTOWN      CLOUDY    -5 -13  68 NE5       30.54F WCI -16
HURON          PTCLDY     3  -6  66 E8        30.59F WCI -10
SISSETON         N/A     -9 -14  78 SW3       30.62F
ABERDEEN       CLEAR      0  -8  69 SE5       30.60F WCI -10
MITCHELL       CLOUDY     5  -3  69 E8        30.59F WCI  -8
PIERRE         CLOUDY    11   6  81 SE18      30.43F WCI  -7
MOBRIDGE       CLOUDY     8   1  73 SE12      30.43F WCI  -7
RAPID CITY     CLOUDY    26  23  88 SE15      30.15F WCI  14
$$

  *****  SOME WEATHER IN NEARBY STATES *****

CITY           SKY/WX    TMP DP  RH WIND       PRES   REMARKS
GLASGOW MT     MOCLDY    17  13  84 E20       30.04F WCI   1
GREAT FALLS MT PTCLDY    41  32  70 SW14      29.92F
CHEYENNE WY    MOCLDY    31  29  92 SW8       30.13F WCI  23
SCOTTSBLUFF NE CLOUDY    33  30  88 SE12      30.19F WCI  24
OMAHA NE       CLOUDY    11   0  61 N8        30.64F WCI  -1
DES MOINES IA  CLOUDY     3  -4  72 N6        30.64S WCI  -8
DAVENPORT IA   CLOUDY     5  -5  63 NW8       30.59R WCI  -8
CHICAGO IL     PTCLDY     5 -11  47 NW16      30.50R WCI -14
EAU CLAIRE WI  PTCLDY    -3 -17  51 NW6       30.58R WCI -15
LA CROSSE WI   PTCLDY    -1 -14  53 NW6       30.61R WCI -13
$$

  *****  SOME NATIONAL WEATHER *****

CITY           SKY/WX    TMP DP  RH WIND       PRES   REMARKS
LA GUARDIA NY  MOCLDY    23  12  62 W15       29.88F WCI  10
RALEIGH NC     PTCLDY    32  19  58 NW7       30.04S
ATLANTA GA     PTCLDY    35  24  64 NW17      30.21R WCI  25
NEW ORLEANS LA PTCLDY    55  38  52 NE9       30.30S
OKLAHOMA CITY  PTCLDY    37  27  67 NE14      30.43F
ALBUQUERQUE NM CLEAR     45  20  36 N8        30.32S
SALT LAKE CITY CLOUDY    29  27  92 NW3       30.32S FOG
LOS ANGELES CA PTCLDY    59  53  80 CALM      30.09S
BOISE ID       CLOUDY    36  33  89 NW6       30.18S
SEATTLE WA     CLOUDY    48  41  76 S8        30.20R
$$

*** WEATHER ACROSS MANITOBA...SASKATCHEWAN AND ONTARIO ***
                ***ONTARIO***

CITY           SKY/WX    TMP DP  RH WIND       PRES   REMARKS
GERALDTON      CRYSTALS -18 -26  69 W3        30.31S
THUNDER BAY    CLEAR    -11 -20  64 W5        30.50R WCI -23
SIOUX LOOKOUT  CLEAR    -18 -24  76 NW6       30.46R WCI -33
TORONTO        PTCLDY    -4 -15  59 N23G30    30.12R WCI -29
BIG TROUT LK   CLOUDY   -20 -26  76 NW9       30.37S WCI -40
PICKLE LAKE    NOT AVBL
DRYDEN         CLEAR    -18 -24  76 W9        30.48R WCI -38
KENORA         CLEAR    -17 -24  70 NW8       30.53R WCI -34
$$
                *** MANITOBA***

CITY           SKY/WX    TMP DP  RH WIND       PRES   REMARKS
BRANDON        PTCLDY   -20 -27  69 NE6       30.49F WCI -36
DAUPHIN        CLEAR    -20 -26  76 W8        30.51F WCI -39
ISLAND LAKE    NOT AVBL
PILOT MOUND      N/A    -22 -27  76 SE6         N/A  WCI -38
THE PAS        CLEAR    -18 -26  69 SE8       30.44F WCI -37
THOMPSON       CLEAR    -22 -27  76 W3        30.47F
WINNIPEG       CLEAR    -17 -22  76 SE3       30.62
LYNN LAKE      CLEAR    -22 -27  76 S5        30.33F WCI -36
CHURCHILL      PTCLDY   -20 -26  76 W8        30.41R WCI -39
$$
                ***SASKATCHEWAN***

CITY           SKY/WX    TMP DP  RH WIND       PRES   REMARKS
ESTEVAN        NOT AVBL
KINDERSLEY     PTCLDY    16  14  93 SE21      29.86F WCI  -2
LLOYDMINSTER   FLURRIES   9   5  85 SE13      29.92F WCI  -7
PRINCE ALBERT  PTCLDY    -9 -17  70 E10       30.20F WCI -28
REGINA         FLURRIES   9   1  72 SE23G31   30.19F WCI -12
YORKTON        MOCLDY    -8 -13  77 SE12      30.35F WCI -27
N. BATTLEFORD  LGT SNOW   9   5  85 SE20G26   30.02F WCC1F1C2F2C3F3C4F4C5F5C6F6C7F7C8F8C9F9CaFaCbFbCcFcCdFdCe!


USA.gov is the U.S. government's official web portal to all federal, state and local government web resources and services.